Regional Weather Roundup
Issued by NWS

Home | Current Version | Previous Version | Text Only | Print | Product List | Glossary On
Versions: 1 2 3 4 5 6 7 8 9 10 11 12 13 14 15 16 17 18 19 20 21 22 23 24 25 26 27 28 29 30 31 32 33 34 35 36 37 38 39 40 41 42 43 44 45 46 47 48 49 50
420
ASUS42 KTBW 261916
RWRFL
FLORIDA REGIONAL WEATHER ROUNDUP
NATIONAL WEATHER SERVICE TAMPA BAY RUSKIN FL
300 PM EDT TUE JUL 26 2016

NOTE: "FAIR" INDICATES FEW OR NO CLOUDS BELOW 12,000 FEET WITH NO
SIGNIFICANT WEATHER AND/OR OBSTRUCTIONS TO VISIBILITY.

FLZ001>010-012>015-112-114-115-262000-
PANHANDLE FLORIDA

CITY           SKY/WX    TMP DP  RH WIND       PRES   REMARKS
PENSACOLA      CLOUDY    84  76  76 S18G25    29.98F
PENSACOLA NAS  PTSUNNY   84  75  74 S16G23    29.98S
MILTON NAS     PTSUNNY   87  79  76 S17       29.99  HX 101
CRESTVIEW      PTSUNNY   89  74  60 S10G17    30.01S HX  98
DUKE FIELD     PTSUNNY   87  75  68 S20       29.99F HX  96
VALPARAISO     LGT RAIN  85  75  70 S17G24    29.99F
TRI COUNTY     FAIR      82  77  84 S7        30.03F
PANAMA CITY    LGT RAIN  83  77  82 S13G24    30.01F
TYNDALL AFB    LGT RAIN  79  77  94 S9        30.03S
APALACHICOLA   CLOUDY    86  80  82 S10       30.03F HX 101

STATION/POSITION SKY/WX   TEMP    WIND        PRES    WAVE   SWELL
                          AIR SEA DIR/SP/G            HT/PER HT/PER
                          (F)     (DEG/KT/KT) (MB)    (FT/S) (FT/S)
30.1N   87.6W              83 87  210/ 19/ 21 1015.2R   6/ 6
29.2N   88.2W              79 87  200/ 16/ 19 1015.4R
28.8N   86.0W              83 87  250/ 12/ 14 1017.6    5/ 6   3/ 6
PANAMA CITY BEAC           82 87  140/ 10/ 13 1017.0F
TOWER C                    85     200/ 17/ 18 1017.7F
28.5N   84.5W              85 87  170/ 12/ 14 1017.8F   4/ 8   3/ 8

$$
FLZ011-016>038-118-127-128-134-139-239-262000-
NORTH FLORIDA

CITY           SKY/WX    TMP DP  RH WIND       PRES   REMARKS
MARIANNA       PTSUNNY   86  78  77 S15       30.02F HX  98
TALLAHASSEE    PTSUNNY   92  72  51 S15       30.03F HX  99
PERRY          MOSUNNY   91  71  53 S13       30.05F HX  97
LIVE OAK       PTSUNNY   90  75  62 W7        30.08F HX 100
CROSS CITY       N/A     92  74  55 SW10      30.05F HX 101
LAKE CITY      CLOUDY    90  72  55 S8        30.05F HX  96
GAINESVILLE    MOSUNNY   95  72  47 S7        30.05F HX 103
WILLISTON      FAIR      95  75  52 SW12      30.05F HX 107
PALATKA        FAIR      93  73  52 SW5       30.05F HX 102
MAYPORT NAS    MOSUNNY   92  73  53 E13       30.05F HX 100
JACKSONVILLE   PTSUNNY   94  69  44 VRB6      30.03F HX  99
JAX NAS        PTSUNNY   95  68  41 S9        30.04F HX  99
JAX CECIL      PTSUNNY   93  70  46 SW3       30.04F HX  99
FERNANDINA BEA FAIR      91  77  62 SE12G17   30.04F HX 105
ST AUGUSTINE   MOSUNNY   91  74  57 SE16      30.06F HX 100
PALM COAST     SUNNY     93  73  52 E12       30.05F HX 102

STATION/POSITION SKY/WX   TEMP    WIND        PRES    WAVE   SWELL
                          AIR SEA DIR/SP/G            HT/PER HT/PER
                          (F)     (DEG/KT/KT) (MB)    (FT/S) (FT/S)
SHELL POINT                88     180/ 13/ 18 1016.6
KEATON BEACH               86     180/ 12/ 15 1017.4F
CEDAR KEY                  86     210/  7/ 10 1019.0F
FERNANDINA                 91 87  110/  4/ 10 1017.9F
30.7N   81.3W                 88                N/A     2/ 8
MAYPORT                    87 86  130/ 10/ 13 1018.3F
31.4N   80.9W              85 89  170/  6/  8 1017.8F   2/ 5   2/ 5
ST AUGUSTINE               84 87  120/ 12/ 12 1018.7F

$$
FLZ040-043>046-052-053-057-058-063-144-262000-
INTERIOR CENTRAL FLORIDA

CITY           SKY/WX    TMP DP  RH WIND       PRES   REMARKS
OCALA          PTSUNNY   91  70  49 SE9       30.06F HX  97
THE VILLAGES     N/A     93  75  55 MISG      29.96F HX 104
LEESBURG       SUNNY     92  72  51 S6        30.06F HX  99
SANFORD        SUNNY     94  70  45 SE9       30.05F HX 100
ORLANDO EXEC   MOSUNNY   92  71  50 S5        30.06F HX  98
ORLANDO INTL   MOSUNNY   93  71  48 S8        30.05F HX 100
KISSIMMEE      MOSUNNY   93  74  53 SE10      30.07F HX 103
WINTER HAVEN   SUNNY     94  71  47 NE6       30.07F HX 101
LAKELAND       PTSUNNY   91  73  55 SE8       30.07F HX 100
BARTOW         MOSUNNY   91  70  49 E6        30.07F HX  97
OKEECHOBEE     MOSUNNY   90  75  62 S9        30.07F HX 100

$$
FLZ041-047-054-059-064-141-147-262000-
EAST CENTRAL FLORIDA

CITY           SKY/WX    TMP DP  RH WIND       PRES   REMARKS
ORMOND BEACH   MOSUNNY   90  72  55 E12       30.06F HX  96
DAYTONA BEACH  MOSUNNY   92  72  51 VRB7      30.06F HX  99
NEW SMYRNA BEA MOSUNNY   86  75  70 E12G20    30.08F HX  95
JFK SPACE CTR  SUNNY     92  73  52 SE12      30.06F HX 100
TITUSVILLE     PTSUNNY   93  68  43 SE12      30.07F HX  97
CAPE CANAVERAL SUNNY     91  74  57 SE15      30.06F HX 100
PATRICK AFB    SUNNY     90  76  63 E15       30.07F HX 102
MELBOURNE      MOSUNNY   91  75  59 E16       30.07F HX 101
VERO BEACH     SUNNY     90  75  61 E14       30.08F HX 100
FT PIERCE      SUNNY     89  74  60 SE14      30.07F HX  98
STUART         MOSUNNY   93  75  55 E14       30.08F HX 104

STATION/POSITION SKY/WX   TEMP    WIND        PRES    WAVE   SWELL
                          AIR SEA DIR/SP/G            HT/PER HT/PER
                          (F)     (DEG/KT/KT) (MB)    (FT/S) (FT/S)
28.5N   80.2W              84 87  130/  6/  8 1019.4F
28.9N   78.5W              83 87  120/  6/  6 1019.5F
TRIDENT PIER               88 87  120/  8/ 11 1019.1F
28.4N   80.5W                 86                N/A     1/ 8
27.5N   80.2W                 85                N/A     2/ 8

$$
FLZ050-056-061-142-242-148-248-149-249-151-251-155-255-
160-260-262000-
WEST CENTRAL FLORIDA

CITY           SKY/WX    TMP DP  RH WIND       PRES   REMARKS
CRYSTAL RIVER  FAIR      91  72  52 W10       30.06S HX  98
INVERNESS      FAIR      93  73  52 SE8       30.06F HX 102
BROOKSVILLE    MOSUNNY   92  73  53 S6        30.07F HX 100
ZEPHYRHILLS    FAIR      89  67  48 SE7       30.07F
CLEARWATER AIR FAIR      90  73  58 SE6       30.05F HX  98
ST PETE CLEARW MOSUNNY   91  72  53 SE6       30.05F HX  98
TAMPA INTL     MOSUNNY   90  76  63 SW8       30.06F HX 101
TAMPA EXEC     PTSUNNY   95  72  46 CALM      30.06F HX 103
PLANT CITY     SUNNY     95  75  52 CALM      30.08F HX 107
MACDILL AFB    PTSUNNY   95  75  51 SE3       30.05F HX 107
PETER O KNIGHT SUNNY     95  77  55 S3        30.06F HX 109
ST PETERSBURG  SUNNY     90  74  59 CALM      30.04F HX  99
SARASOTA       MOSUNNY   93  74  53 SW9       30.04F HX 103
VENICE         NOT AVBL

STATION/POSITION SKY/WX   TEMP    WIND        PRES    WAVE   SWELL
                          AIR SEA DIR/SP/G            HT/PER HT/PER
                          (F)     (DEG/KT/KT) (MB)    (FT/S) (FT/S)
27.3N   84.2W                 86                N/A     4/ 6
CLEARWATER BEACH           87 87  210/  9/ 11 1018.3F
MIDDLE TAMPA BAY                  350/  5/  6 1018.7F
VENICE                     88 89  220/  9/ 10 1017.1F

$$
FLZ066-069-070-075>078-162-262-165-265-262000-
SOUTHWEST FLORIDA AND KEYS

CITY           SKY/WX    TMP DP  RH WIND       PRES   REMARKS
PUNTA GORDA    PTSUNNY   91  74  57 VRB5      30.06F HX 100
FT MYERS       SUNNY     93  69  45 SE9       30.03F HX  98
SOUTHWEST INTL SUNNY     93  70  46 SE7       30.04F HX  99
NAPLES         PTSUNNY   90  77  65 W9        30.04F HX 103
MARCO ISLAND   SUNNY     97  68  38 E8        30.04F HX 101
MARATHON       SUNNY     89  76  65 E8G16     30.04F HX 100
KEY WEST NAS   MOSUNNY   91  76  61 E15       30.03F HX 103
KEY WEST INTL  SUNNY     91  78  65 E15       30.04F HX 106

STATION/POSITION SKY/WX   TEMP    WIND        PRES    WAVE   SWELL
                          AIR SEA DIR/SP/G            HT/PER HT/PER
                          (F)     (DEG/KT/KT) (MB)    (FT/S) (FT/S)
NAPLES                        88              1017.6F
26.0N   85.6W              85 86  130/ 14/ 16 1017.5F   3/ 4   2/ 7
DRY TORTUGAS               85      90/ 13/ 14 1017.0F
SAND KEY                   85     120/ 15/ 18 1017.5F
LONG KEY                   85 88   90/ 12/ 16 1018.0F
MOLASSES REEF              85      90/ 12       N/A

$$
FLZ067-068-071>074-168-172>174-262000-
SOUTHEAST FLORIDA

CITY           SKY/WX    TMP DP  RH WIND       PRES   REMARKS
W PALM BEACH   MOSUNNY   90  73  57 SE12      30.07F HX  98
BOCA RATON     MOSUNNY   90  77  66 E14       30.06F HX 102
FT LAUDER-EXEC MOSUNNY   89  72  56 E16       30.06F HX  96
FT LAUDERDALE  MOSUNNY   89  75  63 E12G22    30.05F HX  99
POMPANO BEACH  MOSUNNY   89  76  65 E14       30.06F HX 100
PEMBROKE PINES MOSUNNY   91  74  57 E14G21    30.07F HX 100
OPA LOCKA      SUNNY     91  74  57 E12       30.06F HX 100
MIAMI          PTSUNNY   89  74  60 SE14G20   30.05F HX  98
WEST KENDALL   MOSUNNY   90  74  59 E13       30.05F HX  99
HOMESTEAD      MOSUNNY   90  75  62 E9        30.04F HX 100

STATION/POSITION SKY/WX   TEMP    WIND        PRES    WAVE   SWELL
                          AIR SEA DIR/SP/G            HT/PER HT/PER
                          (F)     (DEG/KT/KT) (MB)    (FT/S) (FT/S)
PORT EVERGLADES            89      90/  4/  9 1018.6F
VIRGINIA KEY               85 89  110/  8/ 12 1018.9F
LAKE WORTH                        120/ 10/ 12   N/A
FOWEY ROCKS                85 85  100/ 13/ 14 1018.1F
SETTLEMENT POINT           87     170/ 11/ 12 C1F1M1C2F2M2C3F3C4F4M3C5F5M4C6F6M5C7F7M6C8!



USA.gov is the U.S. government's official web portal to all federal, state and local government web resources and services.